This is the latest recevied weather packets stored in our database for station/object KNBG. If no packets are shown the sender has not sent any weather packets the latest 10 day(s).
| Time | Temp. | Humidity | Pressure | Rain* | Wind** | Luminosity | Snow |
|---|---|---|---|---|---|---|---|
| 1777690422 | 15° C | 93% | 1010.8 hPa | 3.3 mm | - | - | - |
| 1777689816 | 15° C | 93% | 1010.8 hPa | 3.3 mm | - | - | - |
| 1777689219 | 15° C | 93% | 1010.8 hPa | 3.3 mm | - | - | - |
| 1777688619 | 15° C | 93% | 1010.8 hPa | 3.3 mm | - | - | - |
| 1777688022 | 15° C | 93% | 1010.8 hPa | 3.3 mm | - | - | - |
| 1777687419 | 15° C | 93% | 1010.8 hPa | 3.3 mm | - | - | - |
| 1777686822 | 15° C | 93% | 1011.2 hPa | 2.54 mm | - | - | - |
| 1777686220 | 15° C | 93% | 1011.2 hPa | 2.54 mm | - | - | - |
| 1777685620 | 15° C | 93% | 1011.9 hPa | 2.29 mm | - | - | - |
| 1777685020 | 15° C | 93% | 1011.9 hPa | 0.76 mm | - | - | - |
| 1777684416 | 15° C | 93% | 1011.9 hPa | 0.76 mm | - | - | - |
| 1777683817 | 15° C | 93% | 1011.5 hPa | 4.32 mm | - | - | - |
| 1777683218 | 15° C | 93% | 1011.5 hPa | 1.78 mm | - | - | - |
| 1777682616 | 15° C | 93% | 1011.5 hPa | 1.78 mm | - | - | - |
| 1777682018 | 15° C | 93% | 1010.2 hPa | 3.56 mm | - | - | - |
| 1777681420 | 15° C | 93% | 1010.2 hPa | 3.56 mm | - | - | - |
| 1777680817 | 15° C | 93% | 1010.2 hPa | 3.56 mm | - | - | - |
| 1777680221 | 15° C | 93% | 1010.2 hPa | 3.56 mm | - | - | - |
| 1777679619 | 15° C | 93% | 1010.2 hPa | 3.56 mm | - | - | - |
| 1777679020 | 15° C | 93% | 1010.2 hPa | 3.56 mm | - | - | - |
| 1777678418 | 15.56° C | 100% | 1010.5 hPa | 1.02 mm | - | - | - |
| 1777677820 | 15.56° C | 100% | 1010.5 hPa | 1.02 mm | - | - | - |
| 1777677220 | 15.56° C | 100% | 1010.5 hPa | 1.02 mm | - | - | - |
| 1777676617 | 15.56° C | 100% | 1010.5 hPa | 1.02 mm | - | - | - |
| 1777676020 | 16.67° C | 93% | 1009.8 hPa | 0.25 mm | - | - | - |
* Rain latest hour (hover to see other rain measurements)
** Current wind speed in m/s (hover to see current wind gust speed)